Regional Weather Roundup
Issued by NWS

Home | Current Version | Previous Version | Graphics & Text | Print | Product List | Glossary On
Versions: 1 2 3 4 5 6 7 8 9 10 11 12 13 14 15 16 17 18 19 20 21 22 23 24 25 26 27 28 29 30 31 32 33 34 35 36 37 38 39 40 41 42 43 44 45 46 47 48 49 50
000
ASUS43 KBIS 302010
RWRND

NORTH DAKOTA REGIONAL WEATHER ROUNDUP
NATIONAL WEATHER SERVICE BISMARCK ND
300 PM CDT THU JUL 30 2015

NOTE: "FAIR" INDICATES FEW OR NO CLOUDS BELOW 12,000 FEET WITH NO
SIGNIFICANT WEATHER AND/OR OBSTRUCTIONS TO VISIBILITY.


NDZ001>003-009>011-017-302100-
NORTHWEST NORTH DAKOTA

CITY           SKY/WX    TMP DP  RH WIND       PRES   REMARKS
WILLISTON      SUNNY     83  43  24 NW14G23   30.18S
MINOT          SUNNY     82  50  32 NW21G30   30.12R
MINOT AFB      SUNNY     82  50  32 W21G33    30.10S
$$

NDZ018>021-031>035-040>046-302100-
SOUTHWEST NORTH DAKOTA

CITY           SKY/WX    TMP DP  RH WIND       PRES   REMARKS
BISMARCK       SUNNY     84  51  31 NW12      30.14F
DICKINSON      SUNNY     82  46  28 NW9       30.18F
GARRISON         N/A     80  53  39 NW15      30.14F
HETTINGER ARPT MOSUNNY   86  42  21 W15       30.20F
$$

NDZ004>008-012>016-024-026-027-054-302100-
NORTHEAST NORTH DAKOTA

CITY           SKY/WX    TMP DP  RH WIND       PRES   REMARKS
GRAND FORKS    MOSUNNY   81  54  39 W16G26    29.99F
GRND FRKS AFB  MOSUNNY   80  56  42 NW15G24   30.00F
DEVILS LAKE    MOSUNNY   79  54  41 W21G28    30.05S
$$

NDZ022-023-025-028>030-036>039-047>053-302100-
SOUTHEAST NORTH DAKOTA

CITY           SKY/WX    TMP DP  RH WIND       PRES   REMARKS
FARGO          MOSUNNY   83  54  36 W17       30.03F
JAMESTOWN      SUNNY     81  53  37 NW20G25   30.09S
$$



USA.gov is the U.S. government's official web portal to all federal, state and local government web resources and services.